When you browse on this site, cookies collect data to enhance your experience and personalize the content and advertising you see.
Visit our Privacy Policy to learn more. By continuing to use the site, you agree to this use of cookies and data.
  • In Schweiz
  • Länderverzeichnis
  • Für 7 Tage
  • Wassertemperatur
  • Satellitenkarten
  • Wetterkarte
  • Widgets
  • user-avatar
    Anmelden

    Stündliche Wetter Talas

    Heute, 21 März, Donnerstag

    Zeit Temperatur Niederschläge Wind Luftdruck Luftfeuchtigkeit
    00:00 +1°C° 0.1 mm 1 m/S 594 mmHg 70%
    01:00 +1°C° 0.1 mm 1 m/S 594 mmHg 69%
    02:00 +1°C° 0.1 mm 1 m/S 595 mmHg 69%
    03:00 +1°C° 0.1 mm 1 m/S 595 mmHg 71%
    04:00 +1°C° 0.1 mm 1 m/S 595 mmHg 72%
    05:00 0°C° 0.1 mm 1 m/S 595 mmHg 74%
    06:00 +1°C° 0.1 mm 1 m/S 595 mmHg 72%
    07:00 +1°C° 0.1 mm 1 m/S 596 mmHg 71%
    08:00 +2°C° 0.1 mm 1 m/S 596 mmHg 70%
    09:00 +3°C° 0.1 mm 1 m/S 596 mmHg 68%
    10:00 +2°C° 0.1 mm 0 m/S 597 mmHg 67%
    11:00 +3°C° 0.1 mm 0 m/S 597 mmHg 66%
    12:00 +4°C° 0.1 mm 1 m/S 597 mmHg 67%
    13:00 +4°C° 0.1 mm 1 m/S 597 mmHg 67%
    14:00 +4°C° 0.1 mm 1 m/S 597 mmHg 68%
    15:00 +4°C° 0.2 mm 1 m/S 597 mmHg 69%
    16:00 +4°C° 0.2 mm 1 m/S 597 mmHg 71%
    17:00 +4°C° 0.2 mm 1 m/S 597 mmHg 72%
    18:00 +3°C° 0.1 mm 1 m/S 597 mmHg 73%
    19:00 +3°C° 0.1 mm 1 m/S 597 mmHg 74%
    20:00 +2°C° 0.1 mm 1 m/S 597 mmHg 75%
    21:00 +2°C° 0.1 mm 1 m/S 597 mmHg 75%
    22:00 +2°C° 0.1 mm 1 m/S 597 mmHg 74%
    23:00 +1°C° 0.1 mm 2 m/S 597 mmHg 74%

    Morgen, 22 März, Freitag

    Zeit Temperatur Niederschläge Wind Luftdruck Luftfeuchtigkeit
    00:00 +1°C° 0 mm 2 m/S 596 mmHg 73%
    01:00 +1°C° 0 mm 2 m/S 596 mmHg 72%
    02:00 -1°C° 0 mm 2 m/S 596 mmHg 72%
    03:00 -1°C° 0.1 mm 2 m/S 596 mmHg 72%
    04:00 -1°C° 0.1 mm 2 m/S 596 mmHg 72%
    05:00 -1°C° 0.1 mm 2 m/S 596 mmHg 72%
    06:00 +1°C° 0.1 mm 2 m/S 596 mmHg 71%
    07:00 +1°C° 0.1 mm 2 m/S 597 mmHg 69%
    08:00 +2°C° 0.1 mm 2 m/S 597 mmHg 68%
    09:00 +3°C° 0 mm 2 m/S 597 mmHg 64%
    10:00 +4°C° 0 mm 2 m/S 597 mmHg 60%
    11:00 +5°C° 0 mm 2 m/S 597 mmHg 56%
    12:00 +6°C° 0 mm 1 m/S 597 mmHg 55%
    13:00 +6°C° 0 mm 1 m/S 597 mmHg 54%
    14:00 +7°C° 0 mm 1 m/S 597 mmHg 54%
    15:00 +6°C° 0 mm 1 m/S 596 mmHg 56%
    16:00 +6°C° 0 mm 1 m/S 596 mmHg 59%
    17:00 +5°C° 0 mm 1 m/S 596 mmHg 61%
    18:00 +4°C° 0.1 mm 1 m/S 596 mmHg 64%
    19:00 +4°C° 0.1 mm 1 m/S 596 mmHg 66%
    20:00 +3°C° 0.1 mm 1 m/S 595 mmHg 68%
    21:00 +2°C° 0 mm 2 m/S 595 mmHg 65%
    22:00 +1°C° 0 mm 2 m/S 595 mmHg 62%
    23:00 0°C° 0 mm 3 m/S 595 mmHg 59%

    übermorgen, 23 März, Samstag

    Zeit Temperatur Niederschläge Wind Luftdruck Luftfeuchtigkeit
    00:00 0°C° 0 mm 3 m/S 595 mmHg 57%
    01:00 0°C° 0 mm 3 m/S 594 mmHg 54%
    02:00 0°C° 0 mm 3 m/S 594 mmHg 52%
    03:00 0°C° 0 mm 3 m/S 594 mmHg 52%
    04:00 0°C° 0 mm 3 m/S 594 mmHg 52%
    05:00 -1°C° 0 mm 3 m/S 594 mmHg 53%
    06:00 +1°C° 0 mm 2 m/S 594 mmHg 53%
    07:00 +2°C° 0 mm 2 m/S 595 mmHg 53%
    08:00 +3°C° 0 mm 2 m/S 595 mmHg 53%
    09:00 +3°C° 0 mm 2 m/S 595 mmHg 51%
    10:00 +5°C° 0 mm 1 m/S 596 mmHg 50%
    11:00 +5°C° 0 mm 1 m/S 596 mmHg 49%
    12:00 +5°C° 0.1 mm 1 m/S 596 mmHg 51%
    13:00 +5°C° 0.1 mm 1 m/S 595 mmHg 53%
    14:00 +5°C° 0.1 mm 1 m/S 595 mmHg 55%
    15:00 +5°C° 0.1 mm 1 m/S 595 mmHg 57%
    16:00 +5°C° 0.1 mm 1 m/S 595 mmHg 60%
    17:00 +4°C° 0.1 mm 1 m/S 595 mmHg 62%
    18:00 +4°C° 0.2 mm 1 m/S 595 mmHg 65%
    19:00 +3°C° 0.2 mm 1 m/S 595 mmHg 68%
    20:00 +2°C° 0.2 mm 2 m/S 595 mmHg 72%
    21:00 +2°C° 0.3 mm 2 m/S 595 mmHg 73%
    22:00 +1°C° 0.3 mm 2 m/S 595 mmHg 73%
    23:00 +1°C° 0.3 mm 2 m/S 596 mmHg 74%

    24 März, Sonntag

    Zeit Temperatur Niederschläge Wind Luftdruck Luftfeuchtigkeit
    00:00 +1°C° 0.2 mm 2 m/S 596 mmHg 75%
    01:00 +1°C° 0.2 mm 2 m/S 595 mmHg 75%
    02:00 +1°C° 0.2 mm 2 m/S 595 mmHg 76%
    03:00 +1°C° 0.3 mm 2 m/S 596 mmHg 77%
    04:00 +1°C° 0.3 mm 2 m/S 596 mmHg 78%
    05:00 -1°C° 0.3 mm 2 m/S 596 mmHg 78%
    06:00 +1°C° 0.4 mm 2 m/S 596 mmHg 78%
    07:00 +1°C° 0.4 mm 2 m/S 596 mmHg 77%
    08:00 +1°C° 0.4 mm 2 m/S 597 mmHg 76%
    09:00 +2°C° 0.1 mm 2 m/S 597 mmHg 73%
    10:00 +2°C° 0.1 mm 2 m/S 597 mmHg 69%
    11:00 +3°C° 0.1 mm 2 m/S 598 mmHg 65%
    12:00 +5°C° 0 mm 1 m/S 598 mmHg 63%
    13:00 +5°C° 0 mm 1 m/S 597 mmHg 60%
    14:00 +4°C° 0 mm 0 m/S 597 mmHg 57%
    15:00 +4°C° 0 mm 0 m/S 597 mmHg 58%
    16:00 +4°C° 0 mm 0 m/S 597 mmHg 58%
    17:00 +4°C° 0 mm 0 m/S 597 mmHg 59%
    18:00 +4°C° 0 mm 1 m/S 596 mmHg 61%
    19:00 +2°C° 0 mm 2 m/S 596 mmHg 63%
    20:00 +1°C° 0 mm 2 m/S 596 mmHg 65%
    21:00 0°C° 0 mm 3 m/S 596 mmHg 65%
    22:00 0°C° 0 mm 3 m/S 595 mmHg 65%
    23:00 -1°C° 0 mm 3 m/S 595 mmHg 64%

    25 März, Montag

    Zeit Temperatur Niederschläge Wind Luftdruck Luftfeuchtigkeit
    00:00 -1°C° 0 mm 3 m/S 595 mmHg 63%
    01:00 -1°C° 0 mm 3 m/S 595 mmHg 62%
    02:00 -2°C° 0 mm 4 m/S 595 mmHg 61%
    03:00 -2°C° 0 mm 4 m/S 595 mmHg 59%
    04:00 -2°C° 0 mm 4 m/S 595 mmHg 57%
    05:00 -2°C° 0 mm 4 m/S 595 mmHg 56%
    06:00 -2°C° 0 mm 4 m/S 595 mmHg 55%
    07:00 -1°C° 0 mm 4 m/S 595 mmHg 54%
    08:00 0°C° 0 mm 4 m/S 596 mmHg 53%
    09:00 +3°C° 0 mm 4 m/S 596 mmHg 51%
    10:00 +4°C° 0 mm 4 m/S 596 mmHg 49%
    11:00 +6°C° 0 mm 4 m/S 597 mmHg 47%
    12:00 +7°C° 0 mm 3 m/S 597 mmHg 46%
    13:00 +7°C° 0 mm 3 m/S 596 mmHg 45%
    14:00 +8°C° 0 mm 3 m/S 596 mmHg 44%
    15:00 +8°C° 0 mm 3 m/S 596 mmHg 45%
    16:00 +7°C° 0 mm 3 m/S 595 mmHg 47%
    17:00 +7°C° 0 mm 3 m/S 595 mmHg 48%
    18:00 +5°C° 0 mm 3 m/S 595 mmHg 50%
    19:00 +4°C° 0 mm 3 m/S 594 mmHg 52%
    20:00 +1°C° 0 mm 4 m/S 594 mmHg 54%
    21:00 +1°C° 0 mm 4 m/S 594 mmHg 51%
    22:00 +1°C° 0 mm 4 m/S 593 mmHg 48%
    23:00 +1°C° 0 mm 4 m/S 593 mmHg 44%

    26 März, Dienstag

    Zeit Temperatur Niederschläge Wind Luftdruck Luftfeuchtigkeit
    00:00 +3°C° 0 mm 4 m/S 593 mmHg 43%
    01:00 +3°C° 0 mm 4 m/S 593 mmHg 42%
    02:00 +3°C° 0 mm 4 m/S 593 mmHg 41%
    03:00 +3°C° 0 mm 4 m/S 593 mmHg 41%
    04:00 +3°C° 0 mm 4 m/S 593 mmHg 41%
    05:00 +3°C° 0 mm 4 m/S 593 mmHg 40%
    06:00 +4°C° 0 mm 3 m/S 594 mmHg 42%
    07:00 +5°C° 0 mm 3 m/S 595 mmHg 43%
    08:00 +5°C° 0 mm 3 m/S 595 mmHg 45%
    09:00 +7°C° 0 mm 3 m/S 596 mmHg 43%
    10:00 +8°C° 0 mm 3 m/S 597 mmHg 42%
    11:00 +9°C° 0 mm 2 m/S 598 mmHg 41%
    12:00 +9°C° 0 mm 2 m/S 598 mmHg 42%
    13:00 +10°C° 0 mm 3 m/S 598 mmHg 44%
    14:00 +10°C° 0 mm 3 m/S 598 mmHg 46%
    15:00 +9°C° 0 mm 3 m/S 598 mmHg 46%
    16:00 +8°C° 0 mm 4 m/S 598 mmHg 47%
    17:00 +8°C° 0 mm 4 m/S 599 mmHg 48%
    18:00 +6°C° 0 mm 4 m/S 598 mmHg 50%
    19:00 +5°C° 0 mm 4 m/S 598 mmHg 53%
    20:00 +3°C° 0 mm 4 m/S 598 mmHg 56%
    21:00 +3°C° 0 mm 3 m/S 598 mmHg 56%
    22:00 +3°C° 0 mm 3 m/S 597 mmHg 56%
    23:00 +2°C° 0 mm 3 m/S 597 mmHg 56%
    Mehr zeigen